Location: Beneden-Haastrecht
(52.0012°N, 4.7557°E)
Time: 04:45:41
(UTC+00:00)

Cosmos 1400 Rocket - Pass Details

Date: 24 October 2020
Orbit: 521 x 568 km, 81.2° (Epoch: 25 November)

Event Time Altitude Azimuth Distance (km) Brightness Sun altitude
Rises 17:37:43 0° 164° (SSE) 2,758 6.3 -11.4°
Reaches altitude 10° 17:40:04 10° 154° (SSE) 1,863 5.3 -11.8°
Maximum altitude 17:43:41 30° 93° (E) 1,019 3.6 -12.3°
Drops below altitude 10° 17:47:18 10° 31° (NNE) 1,863 5.2 -12.9°
Sets 17:49:39 0° 21° (NNE) 2,757 6.2 -13.3°
